Regional Weather Roundup
Issued by NWS State College, PA

Home | Current Version | Previous Version | Text Only | Print | Product List | Glossary On
Versions: 1 2 3 4 5 6 7 8 9 10 11 12 13 14 15 16 17 18 19 20 21 22 23 24 25 26 27 28 29 30 31 32 33 34 35 36 37 38 39 40 41 42 43 44 45 46 47 48 49 50
000
ASUS41 KCTP 072203
RWRCTP

REGIONAL WEATHER ROUNDUP
NATIONAL WEATHER SERVICE STATE COLLEGE PA
500 PM EST SUN FEB 07 2016

Note: "fair" indicates few or no clouds below 12,000 feet with no
significant weather and/or obstructions to visibility.

* = STATION THAT DOES NOT REPORT PRECIPITATION /E.G. RAIN...SNOW...ETC/
    THUNDER OR FOG.

PAZ002>004-007>009-013>016-020>023-029>032-072300-
WESTERN PENNSYLVANIA

CITY           SKY/WX    TMP DP  RH WIND       PRES   REMARKS
ERIE           MOCLDY    49  24  37 S8        29.87F
MEADVILLE      CLOUDY    46  24  42 VRB5      29.87F
FRANKLIN*      CLOUDY    45  25  45 S8        29.91S
NEW CASTLE     FAIR      48  24  39 VRB3      29.90F
BEAVER COUNTY  NOT AVBL
BUTLER*        CLEAR     48  21  34 SW6       29.94F
PITTSBURGH INT PTCLDY    50  20  30 SW9       29.91F
PITTSBURGH     CLOUDY    50  22  33 SW5       29.91F
INDIANA*       CLEAR     45  27  49 SW5       29.96S
LATROBE        CLEAR     46  25  42 SW7       29.95S
WASHINGTON CO* CLOUDY    48  21  34 W5        29.92S
$$

PAZ004>006-010>012-017>019-024>028-033>037-041-042-045-046-049>053-072300-
CENTRAL PENNSYLVANIA

CITY           SKY/WX    TMP DP  RH WIND       PRES   REMARKS
BRADFORD       PTCLDY    42  23  46 S3        29.89F
DUBOIS         CLEAR     43  22  43 S3        29.91S
CLEARFIELD     CLEAR     43  23  45 CALM      29.93F
JOHNSTOWN      CLOUDY    42  20  41 CALM      29.90F
ALTOONA        CLEAR     42  24  49 CALM      29.93F
STATE COLLEGE  CLEAR     45  23  42 CALM      29.94F
WILLIAMSPORT   CLEAR     45  21  38 S3        29.97F
SELINSGROVE    CLEAR     44  21  40 CALM      30.00S
FT INDIANTOWN  CLEAR     42  20  42 S2        29.99S
CAPITAL CITY   CLEAR     44  19  36 E3        29.99F
HARRISBURG     PTCLDY    43  23  45 CALM      29.99S
YORK           PTCLDY    43  20  39 N6        29.99S
$$

PAZ038>040-043-044-047-048-054-055-060>062-067>071-072300-
EASTERN PENNSYLVANIA

CITY           SKY/WX    TMP DP  RH WIND       PRES   REMARKS
SCRANTON       CLEAR     46  23  40 CALM      29.97S
MOUNT POCONO   CLEAR     39  18  42 SE6       29.95F
ALLENTOWN      CLOUDY    43  21  41 NE5       30.00F
QUAKERTOWN*    CLOUDY    43  19  39 E3        30.00S
READING        CLOUDY    44  17  33 N5        29.99S
LANCASTER      MOCLDY    40  24  53 W5        29.99S
COATESVILLE    CLOUDY    41  21  45 CALM      29.99F
POTTSTOWN      PTCLDY    43  21  41 CALM      30.01F
BLUE BELL        N/A     41  23  48 CALM      29.99F
DOYLESTOWN     CLOUDY    41  19  41 CALM      29.99F
WILLOW GROVE   NOT AVBL
NORTH PHILA    CLOUDY    44  23  43 E9        30.01F
PHILADELPHIA   MOCLDY    43  22  43 E7        30.00F
$$



USA.gov is the U.S. government's official web portal to all federal, state and local government web resources and services.